カタログに戻る

SL-16 DEB

運用中LEO
NORAD 22289·DEBRIS·🇷🇺 Russia

打ち上げ Dec 25, 1992 から Baikonur Cosmodrome

Loading…

次のパス (今後24時間)

TLE

最新Source: Space-Track

元期: Sep 14, 2026, 15:07 UTC

1 22289U 92093D   26257.62994287  .00000105  00000-0  55977-4 0  9998
2 22289  70.8306 125.3071 0061215 215.4292 174.9931 14.33084587760682

AllMySatでSL-16 DEBをリアルタイム追跡

Download on the App Store